Weather in La Roche-sur-Yon

France     46°38′53″N   1°26′09″W
temp.,
°C
wind,
m/s
gust,
m/s
humid.,
%
clouds,
%
prec.,
mm/h
press.,
hPa
HPBL,
m
19 september, sun
sun1923:00+14ssw2283100 0.0 101426
02:00+14se2292100 0.0 101423
05:00+14nw379592 0.2 1015165
08:00+15nw5108692 0.3 1016488
11:00+18nw6856100 0.0 1018869
14:00+22nw674599 0.0 10181521
17:00+21wnw565193 0.0 10181344
20:00+17w4675100 0.0 1018181
20 september, mon
mon2023:00+14nw369264 0.1 1019125
02:00+12nnw499497 0.1 1020216
05:00+11nnw3893100 0.0 1020195
08:00+11nnw3792100 0.0 1021177
11:00+16n575893 0.0 1022769
14:00+19n5542100 0.0 10221352
17:00+21nne453690 0.0 10211944
20:00+19ne474599 0.0 1023341
21 september, tue
tue2123:00+15n510785 0.0 1025278
02:00+12n48955 0.0 1026170
05:00+11nne38955 0.0 1025164
08:00+11nne38951 0.0 1026179
11:00+18ne57592 0.0 1027547
14:00+23ne56400 0.0 10261784
17:00+24ne66330 0.0 10242089
20:00+20ne59450 0.0 1025235
22 september, wed
wed2223:00+15ene410590 0.0 1026177
02:00+13ne410670 0.0 1026174
05:00+11ne377337 0.0 1025108
08:00+11ne48785 0.0 1025126
11:00+18ne57510 0.0 1024541
14:00+23ene44350 0.0 10231471
17:00+25ne44300 0.0 10211692
20:00+19ne35430 0.0 102149
23 september, thu
thu2323:00+15ne47550 0.0 102296
02:00+13nne34662 0.0 102246
05:00+12nne34710 0.0 102253
08:00+10ne35820 0.0 102174
11:00+18nne44494 0.0 1022471
14:00+23nne33345 0.0 10201300
17:00+25nne33280 0.0 10181640
20:00+19n33390 0.0 101832